Hourly Data Report for March 03, 2020

All times are specified in Local Standard Time (LST). Add 1 hour to adjust for Daylight Saving Time where and when it is observed.

OTTAWA INTL A
ONTARIO
Current Station Operator: NAVCAN

45°19'00.000" N
75°40'00.000" W
114.90 m
6106001
71628
YOW

Download Data

Hourly Data (March 2020)
Hourly Data Report for March 3, 2020
TIME Temp Definition
°C
Dew Point Definition
°C
Rel Hum Definition
%
Wind Dir Definition
10's deg

Wind Spd Definition
km/h
Visibility Definition
km
Stn Press Definition
kPa
Hmdx Definition


Wind Chill Definition


Weather Definition


00:00 1.0 0.7 98 24 9 9.7 99.04     Fog
01:00 0.1 -0.2 98 23 9 12.9 99.07     Clear
02:00 -1.4 -1.8 97 24 9 24.1 99.11   -5 LegendNANA
03:00 -1.5 -1.9 97 23 12 24.1 99.14   -6 LegendNANA
04:00 -2.2 -2.7 97 22 11 24.1 99.19   -6 Clear
05:00 -2.6 -3.2 96 22 9 24.1 99.19   -6 LegendNANA
06:00 -3.5 -3.8 98 22 6 24.1 99.16   -6 LegendNANA
07:00 -3.4 -3.9 96 21 8 24.1 99.17   -7 Clear
08:00 -3.5 -4.0 96 24 5 24.1 99.22   -6 LegendNANA
09:00 -2.4 -2.9 97 23 5 24.1 99.26   -4 LegendNANA
10:00 0.7 -0.8 89 36 3 24.1 99.15     Clear
11:00 2.6 -3.1 66 3 3 24.1 99.10     LegendNANA
12:00 3.0 -3.0 65 10 7 24.1 99.00     LegendNANA
13:00 2.9 -1.6 73 10 11 22.5 98.85     Mainly Clear
14:00 2.7 -2.7 67 8 12 24.1 98.74     LegendNANA
15:00 2.6 -2.7 68 7 14 24.1 98.56     LegendNANA
16:00 2.0 -1.7 77 6 16 16.1 98.43     Rain
17:00 0.8 -0.8 89 4 33 16.1 98.25     Rain
18:00 0.6 -0.4 93 5 31 16.1 98.11     Rain
19:00 1.1 0.4 95 7 24 9.7 97.95     Rain,Fog
20:00 1.6 1.1 96 8 25 3.2 97.80     Rain,Fog
21:00 1.6 1.2 97 31 10 2.4 97.81     Rain,Fog
22:00 1.1 0.7 97 34 18 3.2 97.70     Rain,Fog
23:00 0.3 -0.1 97 25 19 16.1 97.86     LegendNANA

Notes on Data Quality.

Legend

  • E = Estimated
  • M = Missing
  • NA = Not Available*
  • [empty] = Indicates an unobserved value
Date modified: